Tracking 29892 objects as of 21-Nov-2024
HD Live streaming from Space Station
objects crossing your sky now

BLOCK DM-SL R/B

Track BLOCK DM-SL R/B now!


NORAD ID: 40896
Int'l Code: 2015-048B
Perigee: 35,840.8 km
Apogee: 36,663.8 km
Inclination: 7.7 °
Period: 1,459.6 minutes
Semi major axis: 42623 km
RCS: Unknown
Launch date: September 14, 2015
Source: Commonwealth of Independent States (former USSR) (CIS)
Launch site: TYURATAM MISSILE AND SPACE COMPLEX (TTMTR)

Note: This is a ROCKET BODY
Your satellite tracking list
Your tracking list is empty




NASA's NSSDC Master Catalog

Two Line Element Set (TLE):
1 40896U 15048B   24325.99886730 -.00000155  00000-0  00000+0 0  9992
2 40896   7.6880  66.5074 0096544 132.1036 228.5847  0.98657867 33110
Source of the keplerian elements: AFSPC